Location: Unspecified
(0.0000°N, 0.0000°E)
Time: 20:31:42
(UTC+00:00)

Explorer 11/Cluster Stage 4 - All Passes

Search period start: 02 March 2015 00:00
Search period end: 12 March 2015 00:00
Orbit: 468 x 1276 km, 28.8° (Epoch: 01 March)

Date Brightness Start Highest point End Pass type
(mag) Time Alt. Az. Time Alt. Az. Time Alt. Az.
02 Mar - 00:31:07 10° SW 00:34:27 13° SSW 00:37:32 10° S night (unlit)
02 Mar - 06:05:45 10° S 06:09:05 14° SSE 06:12:17 10° SE daylight
02 Mar - 07:53:12 10° SW 07:59:00 44° SSE 08:03:38 10° E daylight
02 Mar - 09:43:04 10° W 09:47:41 33° NNW 09:51:29 10° NNE daylight
02 Mar - 18:52:44 10° NNW 18:56:56 24° NNE 19:02:03 10° E visible
02 Mar - 20:39:51 10° WNW 20:45:51 81° SSW 20:53:23 10° ESE visible
02 Mar - 22:29:53 10° W 22:35:43 27° SSW 22:42:10 10° SSE night (unlit)
03 Mar - 00:25:04 10° SSW 00:26:40 10° SSW 00:27:59 10° S night (unlit)
03 Mar - 05:56:46 10° SSW 06:01:18 18° SSE 06:05:28 10° ESE daylight
03 Mar - 07:44:51 10° SW 07:51:07 58° SSE 07:56:03 10° ENE daylight
03 Mar - 09:35:20 10° W 09:39:46 26° NNW 09:43:26 10° NNE daylight
03 Mar - 18:44:36 10° NNW 18:48:57 29° NNE 18:54:19 10° E visible
03 Mar - 20:32:05 10° WNW 20:37:51 65° SSW 20:45:05 10° SE visible
03 Mar - 22:22:35 10° WSW 22:27:50 22° SSW 22:33:31 10° SSE night (unlit)
04 Mar - 05:47:59 10° SSW 05:53:29 23° SSE 05:58:22 10° ESE visible
04 Mar - 07:36:33 10° SW 07:43:10 75° SSE 07:48:21 10° ENE daylight
04 Mar - 09:27:40 10° W 09:31:50 21° NNW 09:35:17 10° NNE daylight
04 Mar - 18:36:33 10° NNW 18:40:57 36° NNE 18:46:29 10° E visible
04 Mar - 20:24:24 10° WNW 20:29:52 51° SSW 20:36:43 10° SE visible
04 Mar - 22:15:28 10° WSW 22:19:58 18° SSW 22:24:44 10° SSE night (unlit)
05 Mar - 03:52:59 10° S 03:54:52 11° SSE 03:56:56 10° SSE visible
05 Mar - 05:39:20 10° SSW 05:45:36 28° SSE 05:51:03 10° E visible
05 Mar - 07:28:19 10° WSW 07:35:11 86° NNW 07:40:33 10° ENE daylight
05 Mar - 09:20:08 10° WNW 09:23:52 18° NNW 09:27:01 10° N daylight
05 Mar - 18:28:32 10° NW 18:32:58 45° NNE 18:38:33 10° ESE visible
05 Mar - 20:16:48 10° W 20:21:56 40° SSW 20:28:16 10° SE visible
05 Mar - 22:08:36 10° SW 22:12:08 14° SSW 22:15:46 10° SSE night (unlit)
06 Mar - 03:43:33 10° S 03:47:03 13° SSE 03:50:38 10° SE visible
06 Mar - 05:30:45 10° SW 05:37:39 35° SSE 05:43:35 10° E visible
06 Mar - 07:20:07 10° WSW 07:27:08 69° NNW 07:32:40 10° NE daylight
06 Mar - 09:12:45 10° WNW 09:15:56 15° NNW 09:18:36 10° N daylight
06 Mar - 18:20:35 10° NW 18:24:59 59° NNE 18:30:31 10° ESE daylight
06 Mar - 20:09:18 10° W 20:14:02 31° SSW 20:19:45 10° SE visible
06 Mar - 22:02:16 10° SSW 22:04:21 11° SSW 22:06:17 10° S visible
07 Mar - 03:34:34 10° SSW 03:39:10 16° SSE 03:43:47 10° SE visible
07 Mar - 05:22:13 10° SW 05:29:39 43° SSE 05:35:59 10° E visible
07 Mar - 07:11:59 10° WSW 07:19:04 56° NNW 07:24:42 10° NE daylight
07 Mar - 09:05:36 10° NW 09:07:59 12° NNW 09:09:58 10° N daylight
07 Mar - 16:27:17 10° NNE 16:28:34 11° NNE 16:30:06 10° NE daylight
07 Mar - 18:12:41 10° NW 18:17:00 78° NNE 18:22:26 10° ESE daylight
07 Mar - 20:01:55 10° WSW 20:06:10 24° SSW 20:11:07 10° SSE visible
08 Mar - 03:25:46 10° SSW 03:31:14 19° SSE 03:36:39 10° ESE visible
08 Mar - 05:13:46 10° SW 05:21:35 53° SSE 05:28:15 10° ENE visible
08 Mar - 07:03:55 10° WSW 07:10:57 46° NNW 07:16:39 10° NE daylight
08 Mar - 08:59:15 10° NW 09:00:03 10° NNW 09:00:32 10° NNW daylight
08 Mar - 16:18:30 10° N 16:20:40 15° NNE 16:23:07 10° ENE daylight
08 Mar - 18:04:52 10° WNW 18:09:03 79° SSW 18:14:16 10° SE daylight
08 Mar - 19:54:43 10° WSW 19:58:19 18° SSW 20:02:21 10° SSE visible
09 Mar - 03:17:05 10° SSW 03:23:15 23° SSE 03:29:19 10° ESE visible
09 Mar - 05:05:21 10° SW 05:13:27 64° SSE 05:20:26 10° ENE visible
09 Mar - 06:55:54 10° W 07:02:49 38° NNW 07:08:31 10° NE daylight
09 Mar - 16:10:03 10° NNW 16:12:44 19° NNE 16:15:45 10° ENE daylight
09 Mar - 17:57:07 10° WNW 18:01:07 56° SSW 18:06:01 10° SE daylight
09 Mar - 19:47:49 10° SW 19:50:30 14° SSW 19:53:20 10° S visible
10 Mar - 03:08:28 10° SSW 03:15:12 27° SSE 03:21:49 10° E visible
10 Mar - 04:56:59 10° SW 05:05:17 77° SSE 05:12:30 10° ENE visible
10 Mar - 06:47:58 10° W 06:54:41 32° NNW 07:00:20 10° NNE daylight
10 Mar - 16:01:45 10° NNW 16:04:49 25° NNE 16:08:11 10° E daylight
10 Mar - 17:49:28 10° W 17:53:13 40° SSW 17:57:42 10° SE daylight
10 Mar - 19:41:58 10° SSW 19:42:42 10° SSW 19:43:19 10° S visible
11 Mar - 01:14:00 10° S 01:16:24 12° SSE 01:19:08 10° SE night (unlit)
11 Mar - 02:59:55 10° SSW 03:07:06 32° SSE 03:14:11 10° E visible
11 Mar - 04:48:41 10° WSW 04:57:04 89° NNW 05:04:29 10° ENE visible
11 Mar - 06:40:06 10° W 06:46:33 27° NNW 06:52:02 10° NNE daylight
11 Mar - 15:53:34 10° NW 15:56:52 34° NNE 16:00:29 10° E daylight
11 Mar - 17:41:54 10° W 17:45:20 28° SSW 17:49:16 10° SSE daylight
